Simultaneous Nadir Overpasses (SNOs) Predictions

Prediction of SNOs between GOES-15 and NPP Satellite Orbit:

Table of predicted SNOs for the next 14.0 days since TLE Epoch: 10/19/2013
Index Date Time (GOES-15) GOES-15 Lat,Lon NPP Lat,Lon Distance(km) Time Diff (sec)
1 10/19/2013 10:31:50 0.18,-134.74 0.62,-136.70 223.71 80
2 10/20/2013 10:15:46 0.20,-134.69 -0.38,-132.17 288.30 80
3 10/21/2013 22:35:03 -0.16,-134.56 -0.81,-137.47 330.91 80
4 10/22/2013 22:18:59 -0.18,-134.52 0.19,-132.93 180.98 80
5 10/24/2013 10:38:07 0.14,-134.50 0.99,-138.20 421.27 80
6 10/25/2013 10:22:02 0.16,-134.45 -0.01,-133.66 90.08 80
7 10/27/2013 22:22:35 -0.14,-134.26 -0.17,-134.43 19.20 80
8 10/28/2013 22:06:31 -0.15,-134.20 0.84,-129.89 492.06 80
9 10/30/2013 10:25:39
